Location: Unspecified
(0.0000°N, 0.0000°E)
Time: 08:41:50
(UTC+00:00)

Vanguard 2 Rocket - Pass Details

Date: 15 December 2018
Orbit: 556 x 3325 km, 32.9° (Epoch: 22 March)

Event Time Altitude Azimuth Distance (km) Brightness Sun altitude
Rises 15:41:05 0° 284° (WNW) 5,286 11.5 30.5°
Reaches altitude 10° 15:44:16 10° 277° (W) 4,618 11.5 29.8°
Maximum altitude 15:57:34 46° 209° (SSW) 3,552 11.0 26.8°
Drops below altitude 10° 16:16:20 10° 141° (SE) 6,287 11.1 22.6°
Sets 16:21:43 0° 135° (SE) 7,268 11.3 21.4°
